Weather Roundup
Issued by NWS Chicago, IL

Home | Current Version | Previous Version | Text Only | Print | Product List | Glossary Off
Versions: 1 2 3 4 5 6 7 8 9 10 11 12 13 14 15 16 17 18 19 20 21 22 23 24 25 26 27 28 29 30 31 32 33 34 35 36 37 38 39 40 41 42 43 44 45 46 47 48 49 50

880
NZUS59 KLOT 011208
HRRLOT

CHICAGO AREA WEATHER ROUNDUP
NATIONAL WEATHER SERVICE CHICAGO/ROMEOVILLE IL
700 AM CDT SUN MAY 01 2016

NOTE: "FAIR" INDICATES FEW OR NO CLOUDS BELOW 12,000 FEET WITH NO
SIGNIFICANT WEATHER AND/OR OBSTRUCTIONS TO VISIBILITY.

* THESE STATIONS ARE NOT UNDER NWS QUALITY CONTROL. THEY ALSO MAY NOT
  REPORT WEATHER SUCH AS PRECIPITATION OR FOG.

ILZ005-006-012>014-019>023-011300-
NORTHEAST ILLINOIS

CITY           SKY/WX    TMP DP  RH WIND       PRES   REMARKS
OHARE          FOG       42  42 100 N13       29.96R VSB 1/4
6HR MIN TEMP:  42; 6HR MAX TEMP:  45; 6HR PCP:  0.02;

MIDWAY         FOG       45  43  93 N10       29.95R VSB 1
6HR MIN TEMP:  45; 6HR MAX TEMP:  47; 6HR PCP: TRACE;

AURORA         FOG       46  45  96 NE14      29.95S VSB 3/4
6HR MIN TEMP:  46; 6HR MAX TEMP:  47;

LANSING*       CLOUDY    46  46  99 NE6       29.94R FOG
JOLIET*        FOG       48  47  99 N9        29.95R VSB 1
WAUKEGAN       FOG       42  42 100 N9G20     29.98R VSB 1
6HR MIN TEMP:  42; 6HR MAX TEMP:  44; 6HR PCP: TRACE;

DUPAGE AIRPORT FOG       44  42  93 NE12      29.95R VSB 3/4
6HR MIN TEMP:  44; 6HR MAX TEMP:  46;

WHEELING       CLOUDY    42  42 100 NE9       29.98R FOG
6HR MIN TEMP:  42; 6HR MAX TEMP:  45;

KANKAKEE*      FOG       48  47  97 NE5       29.93R VSB 3/4
MORRIS*        FOG       47  46  97 N3        29.94R VSB 1/2
LEWIS AIRPORT* FOG       45  45  99 NE9       29.95R VSB 1/2
$$

WIZ051-052-058>065-066-070>072-011300-
SOUTHEAST WISCONSIN

CITY           SKY/WX    TMP DP  RH WIND       PRES   REMARKS
MILWAUKEE      LGT RAIN  41  40  96 NE16G25   30.00R VSB 1
6HR MIN TEMP:  41; 6HR MAX TEMP:  44; 6HR PCP:  0.09;

KENOSHA*       CLOUDY    43  41  93 NE12      29.99R FOG
RACINE*        LGT RAIN  42  40  92 N15G22    30.01R VSB 3/4
BURLINGTON     CLOUDY    42  41  99 NE15G22   29.99R FOG
WAUKESHA       RAIN      39  39 100 NE9G16    30.02R FOG
WEST BEND      CLOUDY    41  37  87 N6        30.03R
$$

INZ001>003-010>013-019-020-011300-
NORTHWEST INDIANA

CITY           SKY/WX    TMP DP  RH WIND       PRES   REMARKS
GARY*          CLOUDY    46  46 100 N9        29.94R FOG
MICHIGAN CITY* NOT AVBL
RENSSELAER*    NOT AVBL
VALPARAISO     FOG       48  48 100 NE3       29.93R VSB 3/4
$$

LMZ740>746-011300-
SOUTHERN LAKE MICHIGAN

STATION/POSITION TIME  SKY/WX   TEMP WIND        PRES    VSBY
                                AIR  DIR/SP/G
                 (UTC)          (F)  (DEG/KT/KT) (MB)    (MI)
HARRISON CRIB    NOT AVBL
BURNHAM HARBOR   1200            43  340/ 10/ 14   N/A
CALUMET HARBOR   1100            44   20/ 11/ 14 1013.0R
BURNS HARBOR     1112            46   30/ 12/ 13 1013.5R
MICHIGAN CITY    NOT AVBL
$$

ABBREVIATIONS USED IN REMARKS
   TC - TEMPERATURE IN CELSIUS
  WCI - WIND CHILL INDEX
   HX - HEAT INDEX
  VSB - VISIBILITY
$$




USA.gov is the U.S. government's official web portal to all federal, state and local government web resources and services.